GMT,Max TemperatureF,Mean TemperatureF,Min TemperatureF,Max Dew PointF,MeanDew PointF,Min DewpointF,Max Humidity, Mean Humidity, Min Humidity, Max Sea Level PressureIn, Mean Sea Level PressureIn, Min Sea Level PressureIn, Max VisibilityMiles, Mean VisibilityMiles, Min VisibilityMiles, Max Wind SpeedMPH, Mean Wind SpeedMPH, Max Gust SpeedMPH,PrecipitationIn, CloudCover, Events, WindDirDegrees
2013-2-1,45,42,38,41,38,36,95,83,65,29.86,29.59,29.47,19,7,6,20,10,31,0.16,4,Rain,279
2013-2-2,42,36,31,37,29,24,87,68,46,30.27,30.02,29.62,19,8,6,14,9,22,0.00,4,Rain,326
2013-2-3,50,40,30,46,37,25,87,81,66,30.27,30.07,29.92,19,7,6,18,9,,0.00,6,,249
2013-2-4,51,46,42,46,39,34,87,70,48,29.96,29.88,29.74,15,7,6,22,16,37,0.00,3,Rain,268
2013-2-5,43,39,35,38,32,27,93,71,42,29.71,29.52,29.36,6,6,4,36,19,48,0.02,3,Rain,267
2013-2-6,42,38,35,38,32,26,87,72,52,30.07,29.76,29.39,19,7,6,17,11,26,0.01,3,Rain,332
2013-2-7,42,38,33,36,30,25,93,74,51,30.12,30.06,30.01,19,8,5,14,8,,0.01,4,Rain,297
2013-2-8,43,38,32,36,32,28,93,78,53,30.17,30.11,30.04,18,6,3,12,6,,0.01,2,Rain,316
2013-2-9,38,36,35,36,34,30,96,88,75,30.17,30.07,29.86,19,6,1,9,5,,0.01,5,Rain,207
2013-2-10,41,37,33,40,36,32,100,93,87,29.86,29.48,29.27,7,4,1,17,9,,0.43,6,Rain-Snow,122
2013-2-11,35,34,32,34,32,32,100,93,87,29.79,29.52,29.30,5,3,1,10,8,,0.20,7,Rain-Snow,46
2013-2-12,36,34,33,32,28,25,93,78,65,30.15,29.99,29.80,6,4,2,10,7,,0.00,7,Snow,44
2013-2-13,41,36,33,38,29,23,93,76,56,30.21,30.14,29.98,6,4,1,15,8,,0.00,6,Rain-Snow,143
2013-2-14,53,47,37,46,40,36,100,80,52,29.99,29.86,29.74,19,7,2,17,13,28,0.04,4,Rain,261
2013-2-15,51,43,35,39,35,32,93,76,46,30.21,30.12,30.01,19,9,6,12,7,,0.00,3,,281
2013-2-16,50,44,38,38,35,28,93,73,42,30.25,30.22,30.21,18,8,5,8,4,,0.00,2,,188
2013-2-17,50,41,32,41,35,30,100,83,40,30.21,30.16,30.09,19,4,0,13,6,,0.01,3,Fog,96
2013-2-18,48,40,33,37,33,30,100,82,45,30.15,30.13,30.09,13,4,1,13,7,,0.01,1,,93
2013-2-19,52,41,30,37,32,28,94,75,41,30.15,30.10,30.06,9,4,2,6,3,,0.00,,,8
2013-2-20,41,38,35,37,31,25,100,78,56,30.27,30.21,30.09,16,5,1,18,9,26,0.02,5,Fog,83
2013-2-21,36,34,33,27,22,19,70,58,41,30.27,30.23,30.18,19,7,6,16,13,25,0.00,6,,85
2013-2-22,36,34,32,25,22,19,70,60,44,30.18,30.13,30.09,19,7,6,16,11,23,0.00,6,Snow,51
2013-2-23,36,34,32,28,25,19,87,69,41,30.23,30.15,30.09,16,6,3,12,8,,0.00,6,Rain-Snow,32
2013-2-24,36,34,32,28,27,25,87,71,56,30.30,30.24,30.21,16,7,4,12,7,,0.00,6,,2
2013-2-25,39,36,33,36,33,28,87,82,69,30.40,30.34,30.27,9,6,4,15,9,,0.00,6,Rain-Snow,16
2013-2-26,41,39,37,38,37,34,95,90,81,30.58,30.49,30.39,6,2,1,12,9,22,0.01,6,Rain,47
2013-2-27,42,38,35,36,33,32,93,82,60,30.58,30.54,30.48,12,5,2,14,8,,0.00,5,,47
2013-2-28,48,40,33,36,33,30,93,77,49,30.48,30.40,30.33,16,7,5,13,8,,0.00,4,,48